Weather History for Concordia, KS

Change the Weather History Date:

Tuesday, October 18, 2011

  Actual Average Record
Temperature  
Mean Temperature 46 °F 55 °F  
Max Temperature 55 °F 66 °F 89 °F (2005)
Min Temperature 37 °F 43 °F 25 °F (1972)
Degree Days  
Heating Degree Days 19 11  
Month to date heating degree days 147  
Since 1 July heating degree days 220  
Cooling Degree Days 0 0  
Month to date cooling degree days 20  
Year to date cooling degree days 1346  
Moisture  
Dew Point 30 °F    
Average Humidity 59    
Maximum Humidity 89    
Minimum Humidity 29    
Precipitation  
Precipitation 0.01 in 0.06 in 1.99 in (1885)
Month to date precipitation 1.20  
Year to date precipitation 25.21  
Snow  
Snow 0.00 in 0.00 in T in (1976)
Month to date snowfall 0.0  
Year to date snowfall 13.7  
Since 1 July snowfall 0.0  
Snow Depth -    
Sea Level Pressure  
Sea Level Pressure 30.12 in    
Wind  
Wind Speed 12 mph (NW)    
Max Wind Speed 24 mph    
Max Gust Speed 36 mph    
Visibility 10 miles    
Events      
T = Trace of Precipitation, MM = Missing Value Source: NWS Daily Summary

Daily Weather History Graph

Daily Weather History Graph

Search for Another Location

Airport:

Trip Planner

Search our weather history database for the weather conditions in past years. The results will help you decide how hot, cold, wet, or windy it might be!

Date:

Astronomy

Oct. 18, 2011 Rise Set
Actual Time 7:43 AM CDT 6:47 PM CDT
Civil Twilight 7:16 AM CDT 7:14 PM CDT
Nautical Twilight 6:45 AM CDT 7:45 PM CDT
Astronomical Twilight 6:13 AM CDT 8:16 PM CDT
Moon 11:30 PM CDT (10/18) 1:34 PM CDT (10/18)
Length of Visible Light 11h 58m
Length of Day
11h 03m
Waning Gibbous, 64% of the Moon is Illuminated
Oct 18
Waning Gibbous
Oct 19
Last Quarter
Oct 26
New
Nov 2
First Quarter
Nov 10
Full

Hourly Weather History & Observations

Time (CDT) Temp. Windchill Dew Point Humidity Pressure Visibility Wind Dir Wind Speed Gust Speed Precip Events Conditions
12:55 AM 42.1 °F 37.7 °F 39.0 °F 89% 30.09 in 10.0 mi West 6.9 mph - N/A   Overcast
2:55 AM 44.1 °F 39.0 °F 39.0 °F 82% 30.10 in 10.0 mi West 9.2 mph - N/A   Overcast
3:55 AM 42.1 °F 36.1 °F 39.0 °F 89% 30.08 in 10.0 mi West 10.4 mph - N/A   Overcast
4:55 AM 39.9 °F 33.9 °F 37.0 °F 89% 30.07 in 10.0 mi WNW 9.2 mph - N/A   Clear
5:55 AM 39.2 °F 33.0 °F 35.6 °F 87% 30.08 in 10.0 mi WNW 9.2 mph - N/A   Clear
6:55 AM 39.0 °F 32.8 °F 35.1 °F 86% 30.10 in 10.0 mi NW 9.2 mph - N/A   Clear
7:55 AM 37.9 °F 31.5 °F 33.1 °F 83% 30.11 in 10.0 mi NW 9.2 mph - N/A   Clear
8:55 AM 39.9 °F 32.9 °F 34.0 °F 79% 30.14 in 10.0 mi NNW 11.5 mph - N/A   Clear
9:55 AM 44.1 °F 37.1 °F 35.1 °F 71% 30.15 in 10.0 mi NNW 15.0 mph - N/A   Clear
10:55 AM 48.0 °F - 34.0 °F 58% 30.16 in 10.0 mi North 18.4 mph 28.8 mph 0.01 in   Clear
11:55 AM 50.0 °F - 30.0 °F 46% 30.15 in 10.0 mi North 19.6 mph 33.4 mph N/A   Clear
12:55 PM 52.0 °F - 25.0 °F 35% 30.15 in 10.0 mi North 23.0 mph 35.7 mph N/A   Clear
1:55 PM 54.0 °F - 26.1 °F 34% 30.12 in 10.0 mi North 19.6 mph 31.1 mph N/A   Clear
2:55 PM 54.0 °F - 26.1 °F 34% 30.11 in 10.0 mi North 24.2 mph 31.1 mph N/A   Clear
3:55 PM 55.9 °F - 24.1 °F 29% 30.10 in 10.0 mi NNW 23.0 mph 29.9 mph N/A   Clear
4:55 PM 55.9 °F - 24.1 °F 29% 30.10 in 10.0 mi NNW 19.6 mph 26.5 mph N/A   Clear
5:55 PM 54.0 °F - 24.1 °F 31% 30.11 in 10.0 mi North 17.3 mph 27.6 mph N/A   Clear
6:55 PM 51.1 °F - 24.1 °F 35% 30.12 in 10.0 mi North 12.7 mph 19.6 mph N/A   Clear
7:55 PM 46.9 °F - 25.0 °F 42% 30.14 in 10.0 mi NNW 6.9 mph - N/A   Clear
8:55 PM 44.1 °F 40.1 °F 27.0 °F 51% 30.14 in 10.0 mi NNW 6.9 mph - N/A   Clear
9:55 PM 43.0 °F 39.5 °F 27.0 °F 53% 30.13 in 10.0 mi NW 5.8 mph - N/A   Clear
10:55 PM 39.0 °F 34.0 °F 27.0 °F 62% 30.13 in 10.0 mi WNW 6.9 mph - N/A   Clear
11:55 PM 37.9 °F 32.7 °F 27.0 °F 65% 30.12 in 10.0 mi WNW 6.9 mph - N/A   Partly Cloudy